User: anonymous   Login
Location: Fort Wayne
(41.1310°N, 85.1290°W)
Time: 10:54:38
(UTC-05:00)
Language:

Oscar 19 - Orbit

View from above orbital plane
View from above orbital plane
View from above satellite
View from above satellite

Ground track
Ground track

The orbit data is extracted from the following two-line orbital elements,

1 20442U 90005G   18050.90010178 -.00000001 +00000-0 +15851-4 0  9992
2 20442 098.6005 350.1802 0012534 132.6698 227.5544 14.32886938467032
Epoch (UTC): 19 February 2018 21:36:08
Eccentricity: 0.0012534
inclination: 98.6005°
perigee height: 773 km
apogee height: 791 km
right ascension of ascending node: 350.1802°
argument of perigee: 132.6698°
revolutions per day: 14.32886938
mean anomaly at epoch: 227.5544°
orbit number at epoch: 46703

The dashed part of the orbit path shows where the satellite is in the earth's shadow,  

DLR